Year,Month,Day,Hour,Minute,Value (Times are PST for temperature in C)
2018,04,23,00,00,6.80
2018,04,23,00,01,6.80
2018,04,23,00,02,6.80
2018,04,23,00,03,6.80
2018,04,23,00,04,6.80
2018,04,23,00,05,6.70
2018,04,23,00,06,6.70
2018,04,23,00,07,6.70
2018,04,23,00,08,6.70
2018,04,23,00,09,6.70
2018,04,23,00,10,6.70
2018,04,23,00,11,6.70
2018,04,23,00,12,6.70
2018,04,23,00,13,6.70
2018,04,23,00,14,6.70
2018,04,23,00,15,6.70
2018,04,23,00,16,6.70
2018,04,23,00,17,6.70
2018,04,23,00,18,6.70
2018,04,23,00,19,6.70
2018,04,23,00,20,6.70
2018,04,23,00,21,6.70
2018,04,23,00,22,6.70
2018,04,23,00,23,6.70
2018,04,23,00,24,6.70
2018,04,23,00,25,6.70
2018,04,23,00,26,6.70
2018,04,23,00,27,6.60
2018,04,23,00,28,6.60
2018,04,23,00,29,6.60
2018,04,23,00,30,6.60
2018,04,23,00,31,6.60
2018,04,23,00,32,6.60
2018,04,23,00,33,6.60
2018,04,23,00,34,6.60
2018,04,23,00,35,6.60
2018,04,23,00,36,6.60
2018,04,23,00,37,6.60
2018,04,23,00,38,6.60
2018,04,23,00,39,6.60
2018,04,23,00,40,6.60
2018,04,23,00,41,6.60
2018,04,23,00,42,6.60
2018,04,23,00,43,6.60
2018,04,23,00,44,6.60
2018,04,23,00,45,6.60
2018,04,23,00,46,6.60
2018,04,23,00,47,6.60
2018,04,23,00,48,6.60
2018,04,23,00,49,6.60
2018,04,23,00,50,6.60
2018,04,23,00,51,6.60
2018,04,23,00,52,6.50
2018,04,23,00,53,6.40
2018,04,23,00,54,6.40
2018,04,23,00,55,6.40
2018,04,23,00,56,6.40
2018,04,23,00,57,6.40
2018,04,23,00,58,6.40
2018,04,23,00,59,6.40
2018,04,23,01,00,6.40
2018,04,23,01,01,6.40
2018,04,23,01,02,6.40
2018,04,23,01,03,6.40
2018,04,23,01,04,6.40
2018,04,23,01,05,6.30
2018,04,23,01,06,6.30
2018,04,23,01,07,6.30
2018,04,23,01,08,6.30
2018,04,23,01,09,6.30
2018,04,23,01,10,6.30
2018,04,23,01,11,6.30
2018,04,23,01,12,6.20
2018,04,23,01,13,6.20
2018,04,23,01,14,6.20
2018,04,23,01,15,6.20
2018,04,23,01,16,6.20
2018,04,23,01,17,6.20
2018,04,23,01,18,6.20
2018,04,23,01,19,6.20
2018,04,23,01,20,6.20
2018,04,23,01,21,6.20
2018,04,23,01,22,6.20
2018,04,23,01,23,6.20
2018,04,23,01,24,6.20
2018,04,23,01,25,6.20
2018,04,23,01,26,6.20
2018,04,23,01,27,6.20
2018,04,23,01,28,6.20
2018,04,23,01,29,6.20
2018,04,23,01,30,6.20
2018,04,23,01,31,6.20
2018,04,23,01,32,6.20
2018,04,23,01,33,6.20
2018,04,23,01,34,6.20
2018,04,23,01,35,6.20
2018,04,23,01,36,6.20
2018,04,23,01,37,6.20
2018,04,23,01,38,6.20
2018,04,23,01,39,6.20
2018,04,23,01,40,6.20
2018,04,23,01,41,6.20
2018,04,23,01,42,6.20
2018,04,23,01,43,6.20
2018,04,23,01,44,6.20
2018,04,23,01,45,6.20
2018,04,23,01,46,6.20
2018,04,23,01,47,6.20
2018,04,23,01,48,6.20
2018,04,23,01,49,6.20
2018,04,23,01,50,6.20
2018,04,23,01,51,6.20
2018,04,23,01,52,6.20
2018,04,23,01,53,6.20
2018,04,23,01,54,6.20
2018,04,23,01,55,6.20
2018,04,23,01,56,6.20
2018,04,23,01,57,6.20
2018,04,23,01,58,6.20
2018,04,23,01,59,6.20
2018,04,23,02,00,6.20
2018,04,23,02,01,6.20
2018,04,23,02,02,6.20
2018,04,23,02,03,6.20
2018,04,23,02,04,6.20
2018,04,23,02,05,6.20
2018,04,23,02,06,6.20
2018,04,23,02,07,6.20
2018,04,23,02,08,6.20
2018,04,23,02,09,6.20
2018,04,23,02,10,6.20
2018,04,23,02,11,6.20
2018,04,23,02,12,6.20
2018,04,23,02,13,6.20
2018,04,23,02,14,6.20
2018,04,23,02,15,6.20
2018,04,23,02,16,6.10
2018,04,23,02,17,6.10
2018,04,23,02,18,6.10
2018,04,23,02,19,6.10
2018,04,23,02,20,6.00
2018,04,23,02,21,6.00
2018,04,23,02,22,6.00
2018,04,23,02,23,6.00
2018,04,23,02,24,5.90
2018,04,23,02,25,5.90
2018,04,23,02,26,5.90
2018,04,23,02,27,5.90
2018,04,23,02,28,5.80
2018,04,23,02,29,5.80
2018,04,23,02,30,5.80
2018,04,23,02,31,5.70
2018,04,23,02,32,5.70
2018,04,23,02,33,5.70
2018,04,23,02,34,5.70
2018,04,23,02,35,5.70
2018,04,23,02,36,5.70
2018,04,23,02,37,5.70
2018,04,23,02,38,5.70
2018,04,23,02,39,5.60
2018,04,23,02,40,5.60
2018,04,23,02,41,5.60
2018,04,23,02,42,5.60
2018,04,23,02,43,5.60
2018,04,23,02,44,5.60
2018,04,23,02,45,5.50
2018,04,23,02,46,5.50
2018,04,23,02,47,5.50
2018,04,23,02,48,5.50
2018,04,23,02,49,5.50
2018,04,23,02,50,5.50
2018,04,23,02,51,5.50
2018,04,23,02,52,5.50
2018,04,23,02,53,5.40
2018,04,23,02,54,5.40
2018,04,23,02,55,5.40
2018,04,23,02,56,5.40
2018,04,23,02,57,5.40
2018,04,23,02,58,5.40
2018,04,23,02,59,5.40
2018,04,23,03,00,5.30
2018,04,23,03,01,5.30
2018,04,23,03,02,5.30
2018,04,23,03,03,5.30
2018,04,23,03,04,5.30
2018,04,23,03,05,5.30
2018,04,23,03,06,5.30
2018,04,23,03,07,5.30
2018,04,23,03,08,5.30
2018,04,23,03,09,5.30
2018,04,23,03,10,5.30
2018,04,23,03,11,5.30
2018,04,23,03,12,5.30
2018,04,23,03,13,5.30
2018,04,23,03,14,5.30
2018,04,23,03,15,5.30
2018,04,23,03,16,5.30
2018,04,23,03,17,5.30
2018,04,23,03,18,5.30
2018,04,23,03,19,5.20
2018,04,23,03,20,5.20
2018,04,23,03,21,5.20
2018,04,23,03,22,5.20
2018,04,23,03,23,5.20
2018,04,23,03,24,5.20
2018,04,23,03,25,5.20
2018,04,23,03,26,5.20
2018,04,23,03,27,5.20
2018,04,23,03,28,5.20
2018,04,23,03,29,5.20
2018,04,23,03,30,5.20
2018,04,23,03,31,5.20
2018,04,23,03,32,5.20
2018,04,23,03,33,5.20
2018,04,23,03,34,5.20
2018,04,23,03,35,5.20
2018,04,23,03,36,5.20
2018,04,23,03,37,5.10
2018,04,23,03,38,5.10
2018,04,23,03,39,5.10
2018,04,23,03,40,5.10
2018,04,23,03,41,5.10
2018,04,23,03,42,5.10
2018,04,23,03,43,5.10
2018,04,23,03,44,5.10
2018,04,23,03,45,5.10
2018,04,23,03,46,5.10
2018,04,23,03,47,5.10
2018,04,23,03,48,5.10
2018,04,23,03,49,5.10
2018,04,23,03,50,5.10
2018,04,23,03,51,5.10
2018,04,23,03,52,5.10
2018,04,23,03,53,5.10
2018,04,23,03,54,5.10
2018,04,23,03,55,5.10
2018,04,23,03,56,5.10
2018,04,23,03,57,5.10
2018,04,23,03,58,5.10
2018,04,23,03,59,5.10
2018,04,23,04,00,5.10
2018,04,23,04,01,5.10
2018,04,23,04,02,5.10
2018,04,23,04,03,5.10
2018,04,23,04,04,5.10
2018,04,23,04,05,5.20
2018,04,23,04,06,5.20
2018,04,23,04,07,5.20
2018,04,23,04,08,5.20
2018,04,23,04,09,5.20
2018,04,23,04,10,5.20
2018,04,23,04,11,5.20
2018,04,23,04,12,5.20
2018,04,23,04,13,5.20
2018,04,23,04,14,5.10
2018,04,23,04,15,5.20
2018,04,23,04,16,5.20
2018,04,23,04,17,5.20
2018,04,23,04,18,5.20
2018,04,23,04,19,5.20
2018,04,23,04,20,5.30
2018,04,23,04,21,5.30
2018,04,23,04,22,5.30
2018,04,23,04,23,5.30
2018,04,23,04,24,5.30
2018,04,23,04,25,5.30
2018,04,23,04,26,5.30
2018,04,23,04,27,5.30
2018,04,23,04,28,5.30
2018,04,23,04,29,5.30
2018,04,23,04,30,5.30
2018,04,23,04,31,5.30
2018,04,23,04,32,5.20
2018,04,23,04,33,5.20
2018,04,23,04,34,5.20
2018,04,23,04,35,5.20
2018,04,23,04,36,5.20
2018,04,23,04,37,5.10
2018,04,23,04,38,5.10
2018,04,23,04,39,5.10
2018,04,23,04,40,5.10
2018,04,23,04,41,5.10
2018,04,23,04,42,5.10
2018,04,23,04,43,5.10
2018,04,23,04,44,5.10
2018,04,23,04,45,5.10
2018,04,23,04,46,5.10
2018,04,23,04,47,5.00
2018,04,23,04,48,4.90
2018,04,23,04,49,4.90
2018,04,23,04,50,4.90
2018,04,23,04,51,4.90
2018,04,23,04,52,4.90
2018,04,23,04,53,4.90
2018,04,23,04,54,4.80
2018,04,23,04,55,4.80
2018,04,23,04,56,4.80
2018,04,23,04,57,4.70
2018,04,23,04,58,4.70
2018,04,23,04,59,4.70
2018,04,23,05,00,4.70
2018,04,23,05,01,4.70
2018,04,23,05,02,4.70
2018,04,23,05,03,4.70
2018,04,23,05,04,4.70
2018,04,23,05,05,4.70
2018,04,23,05,06,4.80
2018,04,23,05,07,4.80
2018,04,23,05,08,4.80
2018,04,23,05,09,4.90
2018,04,23,05,10,4.90
2018,04,23,05,11,4.90
2018,04,23,05,12,4.90
2018,04,23,05,13,5.00
2018,04,23,05,14,5.10
2018,04,23,05,15,5.10
2018,04,23,05,16,5.10
2018,04,23,05,17,5.20
2018,04,23,05,18,5.20
2018,04,23,05,19,5.30
2018,04,23,05,20,5.30
2018,04,23,05,21,5.30
2018,04,23,05,22,5.40
2018,04,23,05,23,5.40
2018,04,23,05,24,5.50
2018,04,23,05,25,5.50
2018,04,23,05,26,5.60
2018,04,23,05,27,5.70
2018,04,23,05,28,5.70
2018,04,23,05,29,5.70
2018,04,23,05,30,5.80
2018,04,23,05,31,5.80
2018,04,23,05,32,5.90
2018,04,23,05,33,5.90
2018,04,23,05,34,5.90
2018,04,23,05,35,6.00
2018,04,23,05,36,6.00
2018,04,23,05,37,6.10
2018,04,23,05,38,6.10
2018,04,23,05,39,6.20
2018,04,23,05,40,6.20
2018,04,23,05,41,6.20
2018,04,23,05,42,6.20
2018,04,23,05,43,6.20
2018,04,23,05,44,6.20
2018,04,23,05,45,6.30
2018,04,23,05,46,6.30
2018,04,23,05,47,6.30
2018,04,23,05,48,6.30
2018,04,23,05,49,6.40
2018,04,23,05,50,6.40
2018,04,23,05,51,6.40
2018,04,23,05,52,6.40
2018,04,23,05,53,6.40
2018,04,23,05,54,6.40
2018,04,23,05,55,6.40
2018,04,23,05,56,6.40
2018,04,23,05,57,6.40
2018,04,23,05,58,6.40
2018,04,23,05,59,6.40
2018,04,23,06,00,6.40
2018,04,23,06,01,6.40
2018,04,23,06,02,6.40
2018,04,23,06,03,6.40
2018,04,23,06,04,6.40
2018,04,23,06,05,6.40
2018,04,23,06,06,6.40
2018,04,23,06,07,6.40
2018,04,23,06,08,6.40
2018,04,23,06,09,6.40
2018,04,23,06,10,6.40
2018,04,23,06,11,6.40
2018,04,23,06,12,6.40
2018,04,23,06,13,6.40
2018,04,23,06,14,6.30
2018,04,23,06,15,6.30
2018,04,23,06,16,6.30
2018,04,23,06,17,6.30
2018,04,23,06,18,6.30
2018,04,23,06,19,6.30
2018,04,23,06,20,6.30
2018,04,23,06,21,6.30
2018,04,23,06,22,6.30
2018,04,23,06,23,6.30
2018,04,23,06,24,6.30
2018,04,23,06,25,6.30
2018,04,23,06,26,6.30
2018,04,23,06,27,6.30
2018,04,23,06,28,6.30
2018,04,23,06,29,6.30
2018,04,23,06,30,6.30
2018,04,23,06,31,6.30
2018,04,23,06,32,6.30
2018,04,23,06,33,6.20
2018,04,23,06,34,6.20
2018,04,23,06,35,6.20
2018,04,23,06,36,6.20
2018,04,23,06,37,6.20
2018,04,23,06,38,6.20
2018,04,23,06,39,6.20
2018,04,23,06,40,6.20
2018,04,23,06,41,6.20
2018,04,23,06,42,6.20
2018,04,23,06,43,6.20
2018,04,23,06,44,6.20
2018,04,23,06,45,6.30
2018,04,23,06,46,6.30
2018,04,23,06,47,6.30
2018,04,23,06,48,6.30
2018,04,23,06,49,6.30
2018,04,23,06,50,6.30
2018,04,23,06,51,6.40
2018,04,23,06,52,6.40
2018,04,23,06,53,6.40
2018,04,23,06,54,6.40
2018,04,23,06,55,6.40
2018,04,23,06,56,6.40
2018,04,23,06,57,6.40
2018,04,23,06,58,6.40
2018,04,23,06,59,6.50
2018,04,23,07,00,6.60
2018,04,23,07,01,6.60
2018,04,23,07,02,6.60
2018,04,23,07,03,6.60
2018,04,23,07,04,6.60
2018,04,23,07,05,6.60
2018,04,23,07,06,6.70
2018,04,23,07,07,6.80
2018,04,23,07,08,6.80
2018,04,23,07,09,6.80
2018,04,23,07,10,6.90
2018,04,23,07,11,6.90
2018,04,23,07,12,7.00
2018,04,23,07,13,7.00
2018,04,23,07,14,7.10
2018,04,23,07,15,7.20
2018,04,23,07,16,7.20
2018,04,23,07,17,7.30
2018,04,23,07,18,7.30
2018,04,23,07,19,7.30
2018,04,23,07,20,7.40
2018,04,23,07,21,7.50
2018,04,23,07,22,7.50
2018,04,23,07,23,7.60
2018,04,23,07,24,7.60
2018,04,23,07,25,7.70
2018,04,23,07,26,7.70
2018,04,23,07,27,7.80
2018,04,23,07,28,7.80
2018,04,23,07,29,7.80
2018,04,23,07,30,7.90
2018,04,23,07,31,7.90
2018,04,23,07,32,7.90
2018,04,23,07,33,8.00
2018,04,23,07,34,8.00
2018,04,23,07,35,8.10
2018,04,23,07,36,8.10
2018,04,23,07,37,8.10
2018,04,23,07,38,8.20
2018,04,23,07,39,8.20
2018,04,23,07,40,8.20
2018,04,23,07,41,8.20
2018,04,23,07,42,8.30
2018,04,23,07,43,8.30
2018,04,23,07,44,8.40
2018,04,23,07,45,8.40
2018,04,23,07,46,8.50
2018,04,23,07,47,8.60
2018,04,23,07,48,8.60
2018,04,23,07,49,8.70
2018,04,23,07,50,8.70
2018,04,23,07,51,8.70
2018,04,23,07,52,8.80
2018,04,23,07,53,8.80
2018,04,23,07,54,8.90
2018,04,23,07,55,8.90
2018,04,23,07,56,8.90
2018,04,23,07,57,9.00
2018,04,23,07,58,9.00
2018,04,23,07,59,9.10
2018,04,23,08,00,9.10
2018,04,23,08,01,9.20
2018,04,23,08,02,9.20
2018,04,23,08,03,9.30
2018,04,23,08,04,9.30
2018,04,23,08,05,9.40
2018,04,23,08,06,9.40
2018,04,23,08,07,9.50
2018,04,23,08,08,9.50
2018,04,23,08,09,9.60
2018,04,23,08,10,9.70
2018,04,23,08,11,9.70
2018,04,23,08,12,9.70
2018,04,23,08,13,9.80
2018,04,23,08,14,9.80
2018,04,23,08,15,9.80
2018,04,23,08,16,9.80
2018,04,23,08,17,9.90
2018,04,23,08,18,9.90
2018,04,23,08,19,9.90
2018,04,23,08,20,9.90
2018,04,23,08,21,10.00
2018,04,23,08,22,10.10
2018,04,23,08,23,10.10
2018,04,23,08,24,10.20
2018,04,23,08,25,10.20
2018,04,23,08,26,10.30
2018,04,23,08,27,10.30
2018,04,23,08,28,10.30
2018,04,23,08,29,10.30
2018,04,23,08,30,10.30
2018,04,23,08,31,10.30
2018,04,23,08,32,10.30
2018,04,23,08,33,10.40
2018,04,23,08,34,10.40
2018,04,23,08,35,10.40
2018,04,23,08,36,10.40
2018,04,23,08,37,10.40
2018,04,23,08,38,10.50
2018,04,23,08,39,10.60
2018,04,23,08,40,10.60
2018,04,23,08,41,10.70
2018,04,23,08,42,10.80
2018,04,23,08,43,10.80
2018,04,23,08,44,10.90
2018,04,23,08,45,10.90
2018,04,23,08,46,11.00
2018,04,23,08,47,11.10
2018,04,23,08,48,11.10
2018,04,23,08,49,11.10
2018,04,23,08,50,11.10
2018,04,23,08,51,11.20
2018,04,23,08,52,11.20
2018,04,23,08,53,11.30
2018,04,23,08,54,11.40
2018,04,23,08,55,11.30
2018,04,23,08,56,11.40
2018,04,23,08,57,11.40
2018,04,23,08,58,11.40
2018,04,23,08,59,11.40
2018,04,23,09,00,11.40
2018,04,23,09,01,11.40
2018,04,23,09,02,11.40
2018,04,23,09,03,11.40
2018,04,23,09,04,11.40
2018,04,23,09,05,11.40
2018,04,23,09,06,11.40
2018,04,23,09,07,11.50
2018,04,23,09,08,11.60
2018,04,23,09,09,11.60
2018,04,23,09,10,11.60
2018,04,23,09,11,11.60
2018,04,23,09,12,11.60
2018,04,23,09,13,11.60
2018,04,23,09,14,11.60
2018,04,23,09,15,11.60
2018,04,23,09,16,11.60
2018,04,23,09,17,11.60
2018,04,23,09,18,11.60
2018,04,23,09,19,11.60
2018,04,23,09,20,11.60
2018,04,23,09,21,11.60
2018,04,23,09,22,11.60
2018,04,23,09,23,11.70
2018,04,23,09,24,11.70
2018,04,23,09,25,11.80
2018,04,23,09,26,11.80
2018,04,23,09,27,11.80
2018,04,23,09,28,11.80
2018,04,23,09,29,11.90
2018,04,23,09,30,12.00
2018,04,23,09,31,12.00
2018,04,23,09,32,12.10
2018,04,23,09,33,12.20
2018,04,23,09,34,12.20
2018,04,23,09,35,12.30
2018,04,23,09,36,12.30
2018,04,23,09,37,12.30
2018,04,23,09,38,12.30
2018,04,23,09,39,12.30
2018,04,23,09,40,12.30
2018,04,23,09,41,12.30
2018,04,23,09,42,12.30
2018,04,23,09,43,12.30
2018,04,23,09,44,12.30
2018,04,23,09,45,12.30
2018,04,23,09,46,12.30
2018,04,23,09,47,12.40
2018,04,23,09,48,12.40
2018,04,23,09,49,12.40
2018,04,23,09,50,12.50
2018,04,23,09,51,12.50
2018,04,23,09,52,12.60
2018,04,23,09,53,12.60
2018,04,23,09,54,12.60
2018,04,23,09,55,12.60
2018,04,23,09,56,12.60
2018,04,23,09,57,12.70
2018,04,23,09,58,12.80
2018,04,23,09,59,12.90
2018,04,23,10,00,13.00
2018,04,23,10,01,13.00
2018,04,23,10,02,13.00
2018,04,23,10,03,13.00
2018,04,23,10,04,13.10
2018,04,23,10,05,13.10
2018,04,23,10,06,13.10
2018,04,23,10,07,13.10
2018,04,23,10,08,13.10
2018,04,23,10,09,13.10
2018,04,23,10,10,13.10
2018,04,23,10,11,13.00
2018,04,23,10,12,13.10
2018,04,23,10,13,13.10
2018,04,23,10,14,13.10
2018,04,23,10,15,13.20
2018,04,23,10,16,13.20
2018,04,23,10,17,13.30
2018,04,23,10,18,13.30
2018,04,23,10,19,13.30
2018,04,23,10,20,13.30
2018,04,23,10,21,13.40
2018,04,23,10,22,13.50
2018,04,23,10,23,13.50
2018,04,23,10,24,13.50
2018,04,23,10,25,13.60
2018,04,23,10,26,13.60
2018,04,23,10,27,13.60
2018,04,23,10,28,13.70
2018,04,23,10,29,13.70
2018,04,23,10,30,13.70
2018,04,23,10,31,13.70
2018,04,23,10,32,13.80
2018,04,23,10,33,13.80
2018,04,23,10,34,13.70
2018,04,23,10,35,13.70
2018,04,23,10,36,13.70
2018,04,23,10,37,13.60
2018,04,23,10,38,13.60
2018,04,23,10,39,13.60
2018,04,23,10,40,13.60
2018,04,23,10,41,13.60
2018,04,23,10,42,13.70
2018,04,23,10,43,13.70
2018,04,23,10,44,13.70
2018,04,23,10,45,13.70
2018,04,23,10,46,13.80
2018,04,23,10,47,13.80
2018,04,23,10,48,13.80
2018,04,23,10,49,13.80
2018,04,23,10,50,13.80
2018,04,23,10,51,13.70
2018,04,23,10,52,13.70
2018,04,23,10,53,13.70
2018,04,23,10,54,13.60
2018,04,23,10,55,13.60
2018,04,23,10,56,13.70
2018,04,23,10,57,13.70
2018,04,23,10,58,13.70
2018,04,23,10,59,13.70
2018,04,23,11,00,13.70
2018,04,23,11,01,13.70
2018,04,23,11,02,13.70
2018,04,23,11,03,13.70
2018,04,23,11,04,13.70
2018,04,23,11,05,13.80
2018,04,23,11,06,13.80
2018,04,23,11,07,13.80
2018,04,23,11,08,13.90
2018,04,23,11,09,13.90
2018,04,23,11,10,14.00
2018,04,23,11,11,14.00
2018,04,23,11,12,14.10
2018,04,23,11,13,14.20
2018,04,23,11,14,14.20
2018,04,23,11,15,14.20
2018,04,23,11,16,14.20
2018,04,23,11,17,14.20
2018,04,23,11,18,14.10
2018,04,23,11,19,14.00
2018,04,23,11,20,14.00
2018,04,23,11,21,13.80
2018,04,23,11,22,13.80
2018,04,23,11,23,13.70
2018,04,23,11,24,13.70
2018,04,23,11,25,13.60
2018,04,23,11,26,13.40
2018,04,23,11,27,13.30
2018,04,23,11,28,13.30
2018,04,23,11,29,13.30
2018,04,23,11,30,13.30
2018,04,23,11,31,13.30
2018,04,23,11,32,13.30
2018,04,23,11,33,13.30
2018,04,23,11,34,13.40
2018,04,23,11,35,13.50
2018,04,23,11,36,13.50
2018,04,23,11,37,13.50
2018,04,23,11,38,13.60
2018,04,23,11,39,13.60
2018,04,23,11,40,13.70
2018,04,23,11,41,13.80
2018,04,23,11,42,13.90
2018,04,23,11,43,13.90
2018,04,23,11,44,14.00
2018,04,23,11,45,14.00
2018,04,23,11,46,14.20
2018,04,23,11,47,14.10
2018,04,23,11,48,14.10
2018,04,23,11,49,14.10
2018,04,23,11,50,14.10
2018,04,23,11,51,14.10
2018,04,23,11,52,14.10
2018,04,23,11,53,14.10
2018,04,23,11,54,14.10
2018,04,23,11,55,14.10
2018,04,23,11,56,14.20
2018,04,23,11,57,14.20
2018,04,23,11,58,14.20
2018,04,23,11,59,14.20
2018,04,23,12,00,14.30
2018,04,23,12,01,14.30
2018,04,23,12,02,14.40
2018,04,23,12,03,14.40
2018,04,23,12,04,14.50
2018,04,23,12,05,14.60
2018,04,23,12,06,14.60
2018,04,23,12,07,14.70
2018,04,23,12,08,14.80
2018,04,23,12,09,14.90
2018,04,23,12,10,14.90
2018,04,23,12,11,14.90
2018,04,23,12,12,14.90
2018,04,23,12,13,14.90
2018,04,23,12,14,14.90
2018,04,23,12,15,14.90
2018,04,23,12,16,14.80
2018,04,23,12,17,14.80
2018,04,23,12,18,14.80
2018,04,23,12,19,14.80
2018,04,23,12,20,14.90
2018,04,23,12,21,15.00
2018,04,23,12,22,15.00
2018,04,23,12,23,15.10
2018,04,23,12,24,15.10
2018,04,23,12,25,15.00
2018,04,23,12,26,14.90
2018,04,23,12,27,14.90
2018,04,23,12,28,14.90
2018,04,23,12,29,15.00
2018,04,23,12,30,15.10
2018,04,23,12,31,15.20
2018,04,23,12,32,15.30
2018,04,23,12,33,15.30
2018,04,23,12,34,15.30
2018,04,23,12,35,15.30
2018,04,23,12,36,15.20
2018,04,23,12,37,15.20
2018,04,23,12,38,15.20
2018,04,23,12,39,15.30
2018,04,23,12,40,15.30
2018,04,23,12,41,15.30
2018,04,23,12,42,15.40
2018,04,23,12,43,15.40
2018,04,23,12,44,15.40
2018,04,23,12,45,15.50
2018,04,23,12,46,15.50
2018,04,23,12,47,15.60
2018,04,23,12,48,15.70
2018,04,23,12,49,15.80
2018,04,23,12,50,15.80
2018,04,23,12,51,15.80
2018,04,23,12,52,15.80
2018,04,23,12,53,15.90
2018,04,23,12,54,15.90
2018,04,23,12,55,15.90
2018,04,23,12,56,16.00
2018,04,23,12,57,16.10
2018,04,23,12,58,16.10
2018,04,23,12,59,16.20
2018,04,23,13,00,16.30
2018,04,23,13,01,16.30
2018,04,23,13,02,16.30
2018,04,23,13,03,16.40
2018,04,23,13,04,16.30
2018,04,23,13,05,16.30
2018,04,23,13,06,16.30
2018,04,23,13,07,16.30
2018,04,23,13,08,16.20
2018,04,23,13,09,16.20
2018,04,23,13,10,16.10
2018,04,23,13,11,15.90
2018,04,23,13,12,15.80
2018,04,23,13,13,15.90
2018,04,23,13,14,16.00
2018,04,23,13,15,16.10
2018,04,23,13,16,16.20
2018,04,23,13,17,16.20
2018,04,23,13,18,16.30
2018,04,23,13,19,16.30
2018,04,23,13,20,16.30
2018,04,23,13,21,16.30
2018,04,23,13,22,16.30
2018,04,23,13,23,16.30
2018,04,23,13,24,16.20
2018,04,23,13,25,16.10
2018,04,23,13,26,15.90
2018,04,23,13,27,15.70
2018,04,23,13,28,15.70
2018,04,23,13,29,15.70
2018,04,23,13,30,15.60
2018,04,23,13,31,15.50
2018,04,23,13,32,15.40
2018,04,23,13,33,15.50
2018,04,23,13,34,15.50
2018,04,23,13,35,15.50
2018,04,23,13,36,15.50
2018,04,23,13,37,15.50
2018,04,23,13,38,15.60
2018,04,23,13,39,15.70
2018,04,23,13,40,15.80
2018,04,23,13,41,15.80
2018,04,23,13,42,15.80
2018,04,23,13,43,15.60
2018,04,23,13,44,15.60
2018,04,23,13,45,15.50
2018,04,23,13,46,15.40
2018,04,23,13,47,15.30
2018,04,23,13,48,15.40
2018,04,23,13,49,15.50
2018,04,23,13,50,15.50
2018,04,23,13,51,15.60
2018,04,23,13,52,15.60
2018,04,23,13,53,15.70
2018,04,23,13,54,15.60
2018,04,23,13,55,15.50
2018,04,23,13,56,15.30
2018,04,23,13,57,15.30
2018,04,23,13,58,15.30
2018,04,23,13,59,15.20
2018,04,23,14,00,15.30
2018,04,23,14,01,15.30
2018,04,23,14,02,15.30
2018,04,23,14,03,15.30
2018,04,23,14,04,15.30
2018,04,23,14,05,15.30
2018,04,23,14,06,15.40
2018,04,23,14,07,15.40
2018,04,23,14,08,15.40
2018,04,23,14,09,15.50
2018,04,23,14,10,15.40
2018,04,23,14,11,15.40
2018,04,23,14,12,15.30
2018,04,23,14,13,15.40
2018,04,23,14,14,15.40
2018,04,23,14,15,15.50
2018,04,23,14,16,15.50
2018,04,23,14,17,15.50
2018,04,23,14,18,15.50
2018,04,23,14,19,15.50
2018,04,23,14,20,15.50
2018,04,23,14,21,15.50
2018,04,23,14,22,15.40
2018,04,23,14,23,15.40
2018,04,23,14,24,15.50
2018,04,23,14,25,15.50
2018,04,23,14,26,15.60
2018,04,23,14,27,15.70
2018,04,23,14,28,15.80
2018,04,23,14,29,15.90
2018,04,23,14,30,16.00
2018,04,23,14,31,16.10
2018,04,23,14,32,16.10
2018,04,23,14,33,16.10
2018,04,23,14,34,16.10
2018,04,23,14,35,16.10
2018,04,23,14,36,16.10
2018,04,23,14,37,16.10
2018,04,23,14,38,16.10
2018,04,23,14,39,16.10
2018,04,23,14,40,16.10
2018,04,23,14,41,16.10
2018,04,23,14,42,16.10
2018,04,23,14,43,16.10
2018,04,23,14,44,16.10
2018,04,23,14,45,16.10
2018,04,23,14,46,16.10
2018,04,23,14,47,16.10
2018,04,23,14,48,15.90
2018,04,23,14,49,15.90
2018,04,23,14,50,15.90
2018,04,23,14,51,15.90
2018,04,23,14,52,15.90
2018,04,23,14,53,15.90
2018,04,23,14,54,16.00
2018,04,23,14,55,16.10
2018,04,23,14,56,16.10
2018,04,23,14,57,16.00
2018,04,23,14,58,15.90
2018,04,23,14,59,15.90
2018,04,23,15,00,15.90
2018,04,23,15,01,15.90
2018,04,23,15,02,16.10
2018,04,23,15,03,16.10
2018,04,23,15,04,16.00
2018,04,23,15,05,15.90
2018,04,23,15,06,15.90
2018,04,23,15,07,15.90
2018,04,23,15,08,15.80
2018,04,23,15,09,15.80
2018,04,23,15,10,15.90
2018,04,23,15,11,16.10
2018,04,23,15,12,16.10
2018,04,23,15,13,16.20
2018,04,23,15,14,16.20
2018,04,23,15,15,16.20
2018,04,23,15,16,16.30
2018,04,23,15,17,16.40
2018,04,23,15,18,16.40
2018,04,23,15,19,16.40
2018,04,23,15,20,16.50
2018,04,23,15,21,16.60
2018,04,23,15,22,16.70
2018,04,23,15,23,16.70
2018,04,23,15,24,16.80
2018,04,23,15,25,16.80
2018,04,23,15,26,16.90
2018,04,23,15,27,16.90
2018,04,23,15,28,17.00
2018,04,23,15,29,17.10
2018,04,23,15,30,17.00
2018,04,23,15,31,17.00
2018,04,23,15,32,17.00
2018,04,23,15,33,17.10
2018,04,23,15,34,17.20
2018,04,23,15,35,17.20
2018,04,23,15,36,17.30
2018,04,23,15,37,17.30
2018,04,23,15,38,17.30
2018,04,23,15,39,17.30
2018,04,23,15,40,17.30
2018,04,23,15,41,17.30
2018,04,23,15,42,17.30
2018,04,23,15,43,17.20
2018,04,23,15,44,17.00
2018,04,23,15,45,17.00
2018,04,23,15,46,17.00
2018,04,23,15,47,17.10
2018,04,23,15,48,17.20
2018,04,23,15,49,17.20
2018,04,23,15,50,17.20
2018,04,23,15,51,17.30
2018,04,23,15,52,17.30
2018,04,23,15,53,17.30
2018,04,23,15,54,17.30
2018,04,23,15,55,17.30
2018,04,23,15,56,17.30
2018,04,23,15,57,17.30
2018,04,23,15,58,17.30
2018,04,23,15,59,17.30
2018,04,23,16,00,17.30
2018,04,23,16,01,17.30
2018,04,23,16,02,17.30
2018,04,23,16,03,17.30
2018,04,23,16,04,17.40
2018,04,23,16,05,17.40
2018,04,23,16,06,17.50
2018,04,23,16,07,17.60
2018,04,23,16,08,17.70
2018,04,23,16,09,17.80
2018,04,23,16,10,17.80
2018,04,23,16,11,17.80
2018,04,23,16,12,17.90
2018,04,23,16,13,17.90
2018,04,23,16,14,17.90
2018,04,23,16,15,18.00
2018,04,23,16,16,18.10
2018,04,23,16,17,18.10
2018,04,23,16,18,18.10
2018,04,23,16,19,18.10
2018,04,23,16,20,18.20
2018,04,23,16,21,18.20
2018,04,23,16,22,18.20
2018,04,23,16,23,18.10
2018,04,23,16,24,18.10
2018,04,23,16,25,18.10
2018,04,23,16,26,18.10
2018,04,23,16,27,18.20
2018,04,23,16,28,18.20
2018,04,23,16,29,18.30
2018,04,23,16,30,18.40
2018,04,23,16,31,18.50
2018,04,23,16,32,18.60
2018,04,23,16,33,18.60
2018,04,23,16,34,18.70
2018,04,23,16,35,18.60
2018,04,23,16,36,18.50
2018,04,23,16,37,18.40
2018,04,23,16,38,18.20
2018,04,23,16,39,18.10
2018,04,23,16,40,18.00
2018,04,23,16,41,17.90
2018,04,23,16,42,17.80
2018,04,23,16,43,17.70
2018,04,23,16,44,17.70
2018,04,23,16,45,17.70
2018,04,23,16,46,17.70
2018,04,23,16,47,17.80
2018,04,23,16,48,17.90
2018,04,23,16,49,17.90
2018,04,23,16,50,18.00
2018,04,23,16,51,18.10
2018,04,23,16,52,18.10
2018,04,23,16,53,18.10
2018,04,23,16,54,18.10
2018,04,23,16,55,18.10
2018,04,23,16,56,18.20
2018,04,23,16,57,18.20
2018,04,23,16,58,18.20
2018,04,23,16,59,18.20
2018,04,23,17,00,18.10
2018,04,23,17,01,18.10
2018,04,23,17,02,18.20
2018,04,23,17,03,18.20
2018,04,23,17,04,18.20
2018,04,23,17,05,18.20
2018,04,23,17,06,18.20
2018,04,23,17,07,18.20
2018,04,23,17,08,18.20
2018,04,23,17,09,18.20
2018,04,23,17,10,18.10
2018,04,23,17,11,18.10
2018,04,23,17,12,18.00
2018,04,23,17,13,17.90
2018,04,23,17,14,17.90
2018,04,23,17,15,17.90
2018,04,23,17,16,18.00
2018,04,23,17,17,18.00
2018,04,23,17,18,17.90
2018,04,23,17,19,17.90
2018,04,23,17,20,17.90
2018,04,23,17,21,17.90
2018,04,23,17,22,17.90
2018,04,23,17,23,17.90
2018,04,23,17,24,17.90
2018,04,23,17,25,17.90
2018,04,23,17,26,17.90
2018,04,23,17,27,17.90
2018,04,23,17,28,17.90
2018,04,23,17,29,17.90
2018,04,23,17,30,17.90
2018,04,23,17,31,17.90
2018,04,23,17,32,18.10
2018,04,23,17,33,18.10
2018,04,23,17,34,18.10
2018,04,23,17,35,18.10
2018,04,23,17,36,18.10
2018,04,23,17,37,18.10
2018,04,23,17,38,18.10
2018,04,23,17,39,18.00
2018,04,23,17,40,17.90
2018,04,23,17,41,17.90